Skip Page Navigation
NASA JPL Caltech
NASA Logo - Jet Propulsion Laboratory + View the NASA Portal
+ Center for Near-Earth Object Studies
JPL Home Earth Solar System Stars & Galaxies Technology
JPL Solar System Dynamics
BODIES ORBITS EPHEMERIDES TOOLS PHYSICAL DATA DISCOVERY FAQ SITE MAP
JPL Small-Body Database Browser
Search: [ help ]  
359153 (2009 BF124)
Classification: Main-belt Asteroid          SPK-ID: 2359153
Ephemeris | Orbit Diagram | Orbital Elements | Mission Design | Physical Parameters | Discovery Circumstances | Close-Approach Data ]

[ show orbit diagram ]
Orbital Elements at Epoch 2459000.5 (2020-May-31.0) TDB
Reference: JPL 9 (heliocentric ecliptic J2000)
 Element Value Uncertainty (1-sigma)   Units 
e .08795377176855991 1.0869e-07  
a 2.436072171169072 3.3565e-08 au
q 2.221810435414327 2.5256e-07 au
i 5.944855957686562 9.5802e-06 deg
node 316.8276205893308 6.0572e-05 deg
peri 171.3303637786537 8.0932e-05 deg
M 6.582413279647994 6.5402e-05 deg
tp 2458975.106866368741
(2020-May-05.60686637)
0.00025196 TDB
period 1388.780636961471
3.80
2.8703e-05
7.858e-08
d
yr
n .2592202039824289 5.3575e-09 deg/d
Q 2.650333906923816 3.6517e-08 au
  Orbit Determination Parameters
   # obs. used (total)      87  
   data-arc span      5465 days (14.96 yr)  
   first obs. used      2005-01-17  
   last obs. used      2020-01-04  
   planetary ephem.      DE431  
   SB-pert. ephem.      SB431-N16  
   condition code      0  
   norm. resid. RMS      .57058  
   source      ORB  
   producer      Otto Matic  
   solution date      2020-Jan-30 08:45:51  

Additional Information
 Earth MOID = 1.23689 au 
 Jupiter MOID = 2.38604 au 
 T_jup = 3.492 
[ show covariance matrix ]

Ephemeris | Orbit Diagram | Orbital Elements | Mission Design | Physical Parameters | Discovery Circumstances | Close-Approach Data ]

Physical Parameter Table
Parameter Symbol Value Units Sigma Reference Notes
absolute magnitude H 17.5   n/a MPO455591  

359153 (2009 BF124)          Discovered 2009-Jan-31 by Spacewatch at Kitt Peak
Reference: 20130327/Numbers.arcLast Updated: 2013-03-29

[ show close-approach data ]
Ephemeris | Orbit Diagram | Orbital Elements | Mission Design | Physical Parameters | Discovery Circumstances | Close-Approach Data ]
ABOUT SSD CREDITS/AWARDS PRIVACY/COPYRIGHT GLOSSARY LINKS
FirstGov 2020-Jul-06 06:14 UT
(server date/time)  
NASA Home Page
Site Manager:   Ryan S. Park
Webmaster  Alan B. Chamberlin